sat.trackr.live / text

‹ back to catalog

STARLINK-36483

NORAD 67330 · 2026-002AB

PAYLOAD ACTIVE UNKNOWN

§ Identity

Operator
Country
US
Launch date
2026-01-04
Launch site
AFETR
Launch vehicle
Mass (kg)
RCS (m²)

Purposes: comms

External: N2YO · Heavens-Above · Gunter

§ Orbital elements

Epoch: 2026-09-19T14:40:50.124000Z

Period
94.27 min
Inclination
42.9970°
Eccentricity
0.0002054
Mean motion
15.27590387 rev/d
Perigee alt
481.6 km
Apogee alt
484.4 km
Semi-major
6,861.2 km
B*
3.1927e-4
RAAN
310.3640°
Arg perigee
286.0726°
Mean anomaly
73.9899°
Rev number
4,089

§ Raw data

STARLINK-364831 67330U 26002AB  26262.61169125  .00008537  00000+0  31927-3 0  99952 67330  42.9970 310.3640 0002054 286.0726  73.9899 15.27590387 40894

JSON: /api/v1/satellites/67330 · /tle

For live sub-satellite position, see the globe view (requires WebGL).

§ Visibility from observer

Set your observer location to see the next 7 days of passes ≥ 10°. The values pass through the URL so the page stays shareable.

No JS? Fill the form by hand. The geolocation button needs JavaScript.